RH
63 62 64 68 71 71 70 67 66 65 60 57 54 51 49 47 48 50 54 56 58 59 57 52 43 35 29 22 17 14 12 11 11 10 8 7 6 5 4 4 4 4 4 4 4 3 3 3 3 3 3 3 3 3 3 4 4 4 4 4 5 5 5 6 5 5 5 5 5 4 4 4 3 3 3 3 4 4 4 4 4 4 5 5 6 6 6 6
61 59 59 63 67 72 74 73 72 68 62 57 54 54 52 49 45 42 43 46 48 51 54 55 53 51 48 40 34 28 21 16 12 8 7 7 7 6 5 5 4 4 4 3 3 3 3 3 3 3 3 3 3 4 4 4 4 4 4 5 5 5 5 6 6 6 6 5 5 5 5 4 4 4 4 5 5 5 5 5 5 6 7 7 7 7 7 8
59 58 58 59 64 72 76 78 77 73 65 56 50 51 51 49 47 43 40 38 38 39 41 43 44 46 47 46 46 44 39 35 30 23 19 16 11 8 7 5 4 4 4 4 4 3 3 3 3 3 3 4 3 4 4 4 4 4 4 4 5 5 5 6 6 6 6 6 6 6 6 5 6 6 6 6 7 7 6 6 7 8 9 9 8 8 8 8
58 57 58 62 69 76 80 80 78 73 65 55 46 44 45 45 43 41 40 39 37 36 35 34 35 35 36 37 38 38 37 40 42 39 37 33 29 25 21 17 12 8 5 3 3 3 4 4 3 3 3 3 4 4 4 4 4 4 4 4 4 4 5 5 6 6 6 6 6 6 6 7 7 7 8 8 8 8 7 8 9 9 9 9 9 9 9 9
58 61 67 73 78 79 79 77 73 68 60 51 43 39 37 36 35 35 35 36 36 35 34 32 32 31 31 32 32 31 30 33 36 35 36 37 37 38 37 36 33 28 21 13 9 6 4 3 3 4 4 4 3 3 3 4 4 4 4 4 4 4 4 5 6 6 6 7 7 7 7 7 7 8 9 9 9 9 9 10 10 10 10 9 9 9 9 9
65 71 77 80 80 78 76 73 67 59 52 45 38 34 31 29 27 27 29 31 31 30 29 28 27 26 26 26 25 25 25 28 28 27 29 29 30 32 34 37 41 44 43 40 35 28 20 13 8 4 3 4 4 5 4 3 4 4 4 4 4 4 4 5 5 6 7 7 7 7 7 8 8 9 10 9 9 9 10 10 10 10 10 10 10 10 9 9
73 77 79 79 77 74 71 65 59 52 44 36 30 27 25 23 21 21 23 25 26 25 25 24 23 22 21 19 19 19 20 22 23 23 25 25 26 27 28 30 33 39 43 48 51 51 48 44 37 27 18 9 4 3 4 4 4 3 4 4 4 4 4 5 5 6 7 7 7 7 8 8 9 10 10 9 9 10 10 10 11 10 10 10 10 10 9 9
77 77 76 74 70 67 61 55 49 43 35 27 21 18 16 16 16 17 19 20 21 22 21 21 20 19 17 17 17 18 19 21 23 24 25 26 27 27 28 28 29 32 35 39 43 47 51 56 58 56 51 41 26 13 5 3 4 4 4 4 4 4 4 5 5 6 7 7 7 7 8 8 9 10 10 10 10 10 10 10 11 10 11 10 10 10 10 9
77 75 71 66 61 55 49 44 38 31 23 17 12 10 10 11 13 14 15 16 17 18 18 17 16 15 15 16 17 19 19 21 23 24 26 28 31 33 33 33 32 33 34 35 37 40 44 48 52 55 60 63 58 45 26 11 4 4 4 4 5 4 4 5 5 6 7 7 8 8 8 9 9 10 10 10 11 10 11 11 11 11 11 11 10 10 9 9
72 68 61 55 49 44 38 32 24 17 12 10 8 8 8 9 10 11 12 13 15 15 15 14 13 14 14 15 16 16 17 19 19 20 22 25 28 33 37 40 41 40 39 38 38 40 43 45 47 49 52 58 65 67 56 35 13 4 4 4 4 4 5 5 6 7 7 8 8 9 9 9 9 10 10 11 12 11 11 11 11 11 11 11 10 10 10 9
57 53 48 44 39 32 26 19 14 10 9 8 8 8 8 8 9 10 11 12 12 11 11 11 13 14 15 17 17 17 17 18 18 18 18 19 20 24 30 37 42 44 45 45 44 43 44 46 48 49 49 52 57 63 66 56 33 12 4 5 5 6 6 7 8 9 9 10 10 10 10 10 10 11 12 12 12 12 12 12 12 11 11 11 11 10 10 10
38 34 31 28 24 19 15 12 10 9 8 8 8 8 7 7 8 8 8 9 9 11 13 15 17 19 20 21 20 20 20 20 20 19 19 18 17 17 20 26 34 43 48 50 50 48 47 48 49 50 51 52 54 57 62 63 53 29 9 5 6 7 8 9 10 10 11 11 11 12 11 11 11 12 13 13 13 13 12 12 12 12 12 12 12 12 12 11
22 20 18 16 13 12 11 10 9 8 7 7 7 7 7 8 9 11 13 14 16 18 19 21 22 23 23 23 22 22 21 21 20 20 20 19 19 18 17 20 28 39 48 52 54 54 55 55 53 53 54 56 58 58 58 60 60 43 18 8 8 9 12 13 15 17 17 16 16 15 14 14 14 14 14 14 14 14 14 14 14 15 15 15 15 14 13 12
14 14 13 11 10 10 9 8 7 6 7 9 10 13 15 17 19 20 21 21 22 22 22 23 23 22 22 21 20 20 19 19 18 18 18 18 18 18 18 21 31 40 50 58 58 58 61 64 64 63 63 65 66 64 60 58 57 45 27 14 11 13 17 20 22 24 25 27 28 27 24 22 19 18 17 17 17 17 18 19 19 20 19 19 18 17 16 14
12 11 11 10 9 8 7 7 9 12 16 20 22 24 24 24 24 23 23 23 23 23 23 22 21 20 19 18 17 17 17 16 16 16 16 16 17 18 20 28 42 50 57 64 64 63 66 70 73 75 76 74 72 68 61 56 48 40 35 25 17 16 18 20 22 23 25 26 26 26 23 22 20 19 20 20 22 24 25 25 24 24 23 22 21 19 17 15
10 10 9 8 7 8 11 16 21 25 26 27 26 25 24 24 23 23 23 22 22 22 21 19 18 17 16 16 15 14 14 13 13 14 14 15 15 18 23 37 58 67 68 71 70 69 71 73 74 76 77 74 71 65 58 49 39 36 38 34 24 20 19 20 21 21 21 21 21 21 20 19 20 21 22 24 26 27 27 26 25 24 22 21 20 18 16 15
9 8 7 9 13 19 25 29 29 29 27 25 24 24 24 23 23 22 22 21 20 19 17 16 16 15 14 13 12 11 11 10 11 12 13 14 16 21 33 54 75 81 76 73 71 69 70 69 67 66 63 62 59 55 50 40 31 32 35 32 27 23 21 21 21 22 21 21 21 20 21 23 25 27 29 30 29 28 27 25 23 21 20 18 17 15 14 14
9 12 18 23 28 31 31 29 27 26 25 24 24 24 23 23 22 21 19 18 17 17 16 16 15 14 12 11 11 10 9 9 9 10 13 15 20 34 57 79 88 82 72 66 61 58 58 56 54 50 47 48 47 43 39 32 26 27 28 28 27 23 21 20 20 21 22 24 26 28 31 33 36 37 36 35 32 28 24 21 19 18 17 16 15 14 14 15
24 28 31 32 31 29 27 27 26 25 25 25 24 23 23 21 20 18 18 18 17 18 17 17 16 15 14 14 14 13 12 11 10 10 13 16 28 53 83 97 88 71 57 49 45 44 45 47 45 43 42 42 37 31 27 24 23 25 28 30 29 24 24 27 28 30 32 34 35 36 36 37 36 34 31 28 23 20 19 17 17 17 16 16 16 16 17 18
34 32 31 29 28 28 27 27 26 26 25 25 23 22 21 19 19 18 18 18 19 19 19 19 19 19 19 20 20 20 20 18 16 15 15 19 37 67 93 97 81 62 48 41 39 39 43 47 47 50 53 52 49 45 40 39 40 44 49 50 46 41 41 41 40 38 37 37 36 37 37 37 34 28 24 21 18 17 17 17 17 17 18 19 20 21 21 21
31 30 29 30 29 29 28 28 28 27 25 23 22 21 20 18 18 19 19 20 21 21 22 23 23 23 24 24 26 27 28 28 28 27 28 36 53 75 91 90 75 58 47 44 44 45 51 54 53 52 51 50 49 49 47 46 47 47 47 46 43 41 39 37 36 36 37 38 39 38 37 34 29 24 21 19 18 18 18 19 20 20 22 22 22 22 21 21
32 32 32 31 30 29 29 29 27 25 23 22 21 20 19 18 19 20 22 24 25 23 25 28 27 28 29 30 33 35 39 44 45 46 51 60 71 84 92 85 69 56 51 52 54 54 51 46 38 32 27 25 24 23 23 23 24 24 25 27 29 31 33 35 36 36 35 32 29 26 23 21 19 17 17 17 18 18 19 20 21 22 23 23 22 21 19 18
34 34 32 31 29 30 29 27 25 23 22 21 21 22 22 23 23 24 26 27 27 27 31 34 34 35 37 39 43 47 51 56 58 63 67 71 77 86 91 84 69 58 53 50 46 38 30 24 20 18 18 18 19 20 21 23 25 28 31 33 34 35 34 33 30 26 23 20 18 16 16 15 15 15 16 17 18 20 21 22 23 22 21 19 16 14 13 13
35 33 31 30 30 30 27 25 25 24 23 24 26 27 28 28 27 28 29 29 32 35 38 40 41 45 46 47 53 58 61 62 63 67 68 67 69 73 76 75 69 61 53 45 38 30 26 25 26 27 30 33 36 39 42 43 42 40 38 36 32 28 25 22 20 18 17 16 16 16 16 14 15 16 17 20 22 22 22 20 18 15 13 13 14 17 21 27
34 32 30 30 30 28 26 26 27 27 28 31 32 32 31 30 30 32 33 33 36 41 43 44 48 53 54 54 60 64 66 67 69 70 70 68 65 62 59 60 59 56 52 48 45 42 41 42 43 46 49 51 53 51 49 45 38 32 28 26 22 20 19 18 17 17 16 16 15 16 17 15 14 17 20 22 21 18 16 15 16 19 23 29 35 42 49 56
33 32 31 31 29 27 28 30 31 32 34 36 36 37 36 35 35 36 36 36 38 41 43 44 48 52 51 51 54 56 56 58 59 61 64 65 65 65 63 61 59 58 56 56 54 53 54 55 55 55 53 50 45 40 36 32 28 23 22 21 19 18 17 17 16 16 15 16 16 19 20 18 16 18 19 17 16 18 23 27 32 38 43 48 53 56 60 65
33 32 31 31 29 29 32 34 34 37 39 40 41 41 40 38 36 36 34 34 36 39 40 41 43 45 44 44 45 44 43 43 43 43 44 47 51 55 57 57 59 60 59 59 56 54 52 49 46 43 40 36 32 28 25 24 22 19 18 17 17 16 16 16 17 17 18 19 20 21 22 18 15 14 16 19 25 34 39 42 45 50 54 56 58 61 64 68
33 32 32 31 32 33 35 37 38 42 43 44 44 41 38 35 32 32 30 29 30 31 32 32 33 34 33 34 34 31 30 29 28 26 26 27 29 31 33 34 36 38 38 38 36 34 32 30 28 26 24 22 20 19 17 17 16 15 16 16 16 17 18 19 20 21 21 20 19 18 17 16 15 18 25 31 37 43 44 46 50 53 55 55 56 58 60 62
33 33 33 34 35 37 39 39 41 44 45 43 40 35 32 29 27 27 25 24 23 22 22 22 21 21 20 19 19 18 17 17 16 15 16 16 16 16 17 18 18 18 18 18 18 18 17 16 16 16 15 15 15 15 15 16 16 17 18 19 20 20 20 20 19 18 17 15 16 19 22 25 26 28 35 38 39 41 41 43 46 46 45 45 46 48 51 54
34 35 36 37 41 42 41 41 42 42 39 34 30 27 26 25 24 23 21 21 20 17 17 16 15 15 15 14 14 14 13 13 13 13 13 13 13 13 13 13 14 14 14 14 14 14 15 15 15 16 16 16 17 17 18 19 19 19 19 19 18 17 16 15 15 16 18 20 24 28 31 32 30 30 34 35 35 36 37 39 41 40 41 42 44 48 53 58
36 38 39 43 46 46 42 39 38 33 28 26 25 25 25 24 24 22 21 20 19 17 16 16 15 15 14 14 14 13 13 13 13 12 13 13 13 13 13 14 14 15 15 16 16 16 17 18 18 18 18 18 18 19 18 17 17 16 15 15 15 16 16 17 19 22 25 27 27 27 27 27 27 28 30 34 37 38 40 41 42 43 46 49 53 57 61 64
39 42 45 48 48 45 38 33 29 25 24 24 24 25 25 24 23 21 20 19 18 17 16 15 15 14 14 13 13 13 13 13 13 13 13 14 14 14 15 15 16 16 17 17 17 18 18 18 17 16 16 15 15 15 14 14 15 16 18 19 20 21 21 20 21 22 22 23 22 23 24 25 29 35 37 42 46 45 44 45 48 52 55 57 61 64 65 66
42 47 50 50 48 41 31 25 22 23 24 25 25 25 24 23 22 20 18 16 15 15 13 12 12 11 11 11 11 12 12 12 12 13 14 14 14 14 15 14 14 13 13 13 13 14 15 15 14 13 14 14 15 16 18 19 20 21 23 23 22 21 19 18 18 18 20 22 23 26 29 32 39 47 51 52 51 49 50 53 56 59 62 64 65 66 66 65
46 52 53 51 45 34 26 22 21 23 24 25 26 25 24 22 20 18 15 13 12 11 10 9 9 9 10 10 10 11 11 11 12 12 12 11 11 11 10 10 10 10 10 11 11 13 16 17 16 16 17 17 17 18 19 19 19 19 20 20 21 21 21 21 21 23 24 26 29 33 38 42 47 54 59 58 56 56 59 62 64 65 67 68 69 69 70 72
50 54 52 48 39 29 24 24 24 27 26 25 25 24 22 19 16 14 11 9 9 9 8 9 9 9 9 9 9 9 9 9 9 9 9 9 9 10 10 11 12 12 13 14 14 14 17 19 17 16 16 16 16 17 17 18 18 19 21 23 24 27 28 29 29 31 31 30 33 39 45 50 53 59 63 63 63 66 67 67 68 70 72 74 76 79 82 86
54 53 48 44 36 28 27 27 29 32 28 23 23 21 18 14 11 10 9 8 9 9 9 9 8 8 7 7 7 8 8 8 9 10 10 11 11 11 12 12 13 13 13 13 13 13 15 17 16 16 17 17 19 20 21 23 24 25 27 29 31 32 33 35 36 38 39 37 37 42 51 57 61 65 69 69 69 70 71 72 76 79 81 83 87 91 94 97
55 50 44 40 35 30 29 31 34 33 26 20 19 16 13 10 8 8 8 8 8 7 7 7 7 7 8 8 9 9 10 10 11 11 11 11 12 12 12 12 12 13 14 14 15 15 16 19 20 20 20 22 24 25 26 27 28 29 31 33 34 34 36 39 41 42 44 43 43 48 57 65 68 71 73 72 73 75 79 83 85 86 88 92 96 98 94 87
53 48 42 38 35 33 33 34 33 27 20 16 14 11 9 8 7 7 6 6 6 6 7 8 8 9 9 10 10 10 10 11 11 11 12 12 12 13 13 14 14 15 15 16 17 17 16 19 23 23 22 24 25 26 28 29 28 30 33 34 35 38 40 44 47 49 50 51 52 55 64 73 76 76 77 77 81 85 86 87 88 91 93 91 84 72 57 43
54 48 41 39 40 37 34 30 25 18 14 12 9 8 7 6 6 6 6 7 7 8 8 9 9 9 10 10 10 11 11 12 13 13 14 14 15 15 15 15 15 14 14 14 13 14 14 15 21 24 21 21 22 24 25 28 29 30 32 34 37 41 43 47 54 59 60 63 67 67 71 78 82 82 83 85 87 88 89 90 89 83 72 56 39 26 17 12
56 51 44 41 38 32 25 21 15 11 10 8 7 6 6 6 7 7 8 8 8 9 9 10 10 10 11 12 12 13 13 14 14 14 14 13 13 13 13 12 12 11 11 11 10 11 12 13 18 22 20 19 20 20 21 25 29 31 33 36 40 44 48 53 62 69 74 78 83 81 80 85 88 86 86 88 90 90 85 76 61 43 27 16 10 8 8 8
48 43 36 30 25 19 15 13 10 8 7 6 6 6 7 7 8 8 9 9 9 10 11 12 12 13 13 13 13 13 13 12 11 10 10 10 10 10 10 9 10 10 9 10 10 10 11 12 14 17 18 17 17 17 20 25 29 31 34 38 43 50 57 64 71 79 85 89 93 93 88 88 91 91 90 89 83 70 52 34 20 11 8 8 8 8 8 8
29 26 21 17 14 12 9 8 7 6 6 7 7 8 8 9 9 9 11 11 12 12 13 13 13 13 12 12 11 10 10 9 9 8 8 8 8 8 8 8 8 8 8 9 10 10 11 12 12 14 15 14 15 18 23 27 30 34 39 44 49 58 69 77 82 87 91 96 99 99 94 93 95 91 81 64 45 27 15 9 8 8 9 9 9 9 9 8
17 15 13 11 10 8 7 7 6 7 7 8 9 9 10 11 11 12 13 13 13 12 12 12 11 10 9 9 8 8 8 7 7 7 6 7 7 7 7 7 7 8 9 10 11 11 11 11 12 14 14 16 20 24 28 33 37 41 47 55 64 75 83 89 94 96 96 99 102 102 99 94 82 62 40 23 12 8 8 9 10 10 9 10 9 9 9 8
12 10 9 8 7 6 7 7 7 9 9 10 11 11 12 13 13 13 13 12 12 10 10 9 8 8 7 7 7 6 6 6 5 6 6 6 6 7 7 8 8 9 10 11 12 12 13 13 14 16 18 21 26 30 33 40 48 55 62 70 80 89 95 99 101 101 99 101 104 99 83 61 39 20 11 8 9 10 10 11 11 11 10 10 9 9 9 9
9 8 7 7 7 7 8 9 10 11 11 12 13 13 14 14 13 13 11 10 9 8 8 7 6 6 6 6 6 5 5 5 6 6 6 7 7 8 8 9 9 10 11 12 13 14 16 17 19 22 25 28 31 34 36 42 54 67 77 84 90 96 100 102 102 102 103 99 86 65 40 20 10 8 9 10 11 11 12 12 11 10 10 10 10 10 10 10
7 7 7 8 9 9 10 12 12 13 13 14 14 13 14 13 12 10 9 8 7 6 6 6 5 5 5 5 5 5 6 6 6 7 7 7 8 8 9 9 10 11 12 14 17 20 22 23 25 29 31 33 36 41 45 52 63 74 84 91 95 97 99 102 103 101 90 69 43 22 11 7 9 10 11 12 13 13 13 12 10 10 10 10 11 11 11 11
7 8 8 10 11 12 13 14 14 14 14 14 14 14 13 10 9 8 7 6 6 5 5 5 5 5 5 5 5 6 7 6 7 7 7 8 8 9 10 11 13 15 17 20 24 26 28 28 30 35 37 38 42 50 59 69 78 86 91 92 93 96 100 101 93 74 48 26 12 8 8 10 11 12 13 15 15 14 12 11 10 10 11 11 12 12 12 13
9 10 11 12 14 14 15 15 15 15 15 15 14 12 10 8 7 6 5 5 5 4 4 4 4 5 4 5 5 6 6 7 7 8 8 9 10 11 14 16 18 21 23 26 28 29 30 30 32 38 42 45 53 65 76 86 94 95 92 91 94 98 94 79 56 32 15 9 8 9 10 12 13 14 16 16 15 13 12 10 11 12 12 13 14 14 14 15
12 13 13 15 15 15 16 16 16 15 14 13 11 9 7 6 5 5 5 4 4 4 4 4 4 4 4 5 5 5 6 6 7 8 9 11 13 16 20 22 24 26 27 28 29 29 29 30 33 39 46 54 66 80 90 96 99 96 93 96 96 84 63 38 19 10 8 9 10 11 13 14 15 16 17 16 14 12 11 11 13 14 14 15 15 16 16 16
15 15 15 15 15 16 17 17 16 13 11 10 8 7 6 5 5 5 4 4 4 4 4 4 4 4 5 5 6 6 7 7 7 9 11 14 18 21 24 25 26 26 25 26 27 27 28 31 34 40 49 61 75 90 98 98 97 96 96 91 73 46 25 12 8 9 9 10 12 14 15 16 17 19 18 15 12 11 12 14 15 16 16 17 17 17 17 17
16 16 16 16 17 17 17 16 14 11 9 8 7 6 6 5 5 5 4 4 4 4 4 5 4 5 5 6 6 7 7 8 10 12 15 19 22 23 24 24 23 23 23 24 25 27 30 33 36 41 50 62 77 90 97 97 95 94 84 61 35 16 9 8 9 10 11 12 14 15 17 19 20 20 18 14 12 12 14 15 16 17 18 18 18 18 19 19
16 17 17 17 17 17 16 14 13 10 8 8 7 6 6 6 5 5 5 5 4 4 5 5 5 5 6 6 7 8 9 11 14 18 20 22 22 22 21 20 19 20 21 22 25 28 31 36 41 44 51 66 80 87 91 92 87 74 52 28 13 9 9 9 10 12 13 15 16 17 20 21 22 21 17 14 12 13 16 17 18 19 19 20 20 21 21 22
Wind_Speed
8 6 4 3 3 3 2 1 1 2 3 3 3 3 4 4 5 6 6 6 6 6 6 5 6 6 7 7 8 8 9 10 11 12 12 13 14 15 16 16 17 17 17 18 18 19 19 20 20 20 20 20 21 21 21 21 22 22 22 21 21 22 23 23 23 23 24 24 25 26 26 25 25 25 24 24 25 25 26 28 28 27 26 27 28 29 29 30
8 7 6 4 3 3 2 3 4 5 5 5 5 5 5 6 7 7 8 9 9 9 9 9 9 10 10 10 10 11 11 12 13 14 14 15 16 17 18 18 19 19 19 20 20 21 21 22 22 23 22 22 23 23 23 23 24 24 23 22 22 24 23 23 23 24 24 25 25 26 26 26 25 24 24 24 24 25 27 29 27 25 26 28 29 29 29 31
9 8 7 6 6 5 5 5 6 8 8 8 8 7 7 8 8 9 9 10 11 11 12 12 13 13 14 14 14 14 15 15 16 16 17 17 18 19 19 20 20 21 21 22 22 23 23 24 24 25 24 24 24 24 24 24 25 25 24 23 24 25 25 24 25 25 25 26 26 26 26 26 26 25 24 24 25 27 29 28 26 25 27 29 30 30 31 32
10 10 9 8 8 7 8 9 10 11 11 11 10 10 10 10 10 11 11 11 11 12 12 13 14 15 15 16 17 17 18 18 19 19 20 20 21 21 21 22 22 23 23 23 24 24 25 26 26 26 26 26 26 26 26 26 26 26 25 25 25 26 26 26 26 26 27 27 27 27 27 27 27 26 25 26 27 28 29 27 26 27 29 30 31 31 33 33
12 11 10 10 10 10 11 12 13 13 14 14 13 12 12 12 12 12 13 13 13 13 13 14 14 15 15 16 17 18 19 19 20 21 22 23 23 24 25 25 25 25 25 25 26 26 27 27 28 28 28 28 29 29 28 28 28 27 27 27 27 27 27 27 27 28 28 28 28 28 28 28 28 27 27 28 29 29 29 29 29 30 31 32 32 33 34 35
14 13 13 13 13 13 14 15 16 16 16 15 15 14 14 14 14 14 14 14 14 14 15 15 16 16 17 17 18 19 19 20 21 21 23 24 25 26 27 27 28 28 29 28 28 28 28 29 29 29 29 30 30 30 30 30 30 30 29 29 29 29 28 28 29 29 29 29 30 30 30 29 29 29 29 31 31 30 30 31 32 32 33 34 34 35 36 36
17 17 16 16 16 17 17 18 18 18 17 17 16 16 15 15 15 15 15 15 16 16 17 17 18 19 19 19 20 21 21 22 22 23 24 25 26 27 28 29 29 30 31 32 32 32 31 31 30 30 30 30 31 31 31 31 32 31 30 30 31 30 29 29 29 30 30 31 31 31 31 31 31 31 32 33 33 33 33 33 34 35 35 35 36 37 37 38
19 19 19 19 19 19 19 19 19 18 18 17 16 16 16 16 16 16 16 17 17 18 18 19 19 20 20 21 22 22 23 23 24 25 25 26 27 28 29 30 30 31 32 33 34 34 35 34 34 33 32 31 32 32 32 32 32 32 31 31 31 31 30 30 30 31 31 32 32 33 33 33 33 33 34 35 35 35 35 35 36 37 37 37 37 38 38 39
20 21 21 21 21 20 20 19 19 18 17 16 16 16 16 16 16 17 17 18 18 19 19 20 21 20 21 21 21 23 23 23 24 26 26 27 28 29 30 31 31 32 33 34 35 35 36 36 36 36 35 34 33 32 32 33 33 32 32 32 31 31 31 31 31 31 32 33 33 34 34 34 34 35 36 36 36 37 37 37 38 38 38 38 39 39 39 40
22 22 21 21 20 20 19 18 18 16 16 15 16 16 16 17 17 18 18 19 19 20 20 20 21 21 21 21 22 24 24 24 26 27 27 28 29 30 31 32 32 33 34 34 35 36 36 37 38 38 37 36 35 33 33 32 32 32 32 32 31 31 30 31 31 31 32 33 34 35 35 35 36 37 37 37 37 38 38 39 39 39 40 39 39 40 40 41
22 21 21 20 19 19 18 17 16 16 15 16 16 16 17 18 18 18 18 19 19 19 19 19 20 21 22 23 24 25 25 26 28 29 30 30 31 31 32 33 34 34 35 35 36 36 37 37 38 38 38 37 36 35 34 33 32 32 32 32 31 31 30 30 31 31 33 34 34 35 36 36 37 38 38 38 39 39 40 41 41 41 40 40 41 41 42 43
21 20 20 19 18 17 16 16 15 15 15 15 15 16 16 17 17 17 17 18 18 18 18 19 20 22 23 25 27 27 28 29 31 31 33 33 34 33 33 34 34 35 35 35 36 36 37 37 38 38 38 38 37 36 35 34 33 32 32 32 31 31 30 30 31 32 33 34 34 35 36 37 38 39 39 39 40 40 42 42 42 42 42 42 43 44 45 46
20 20 19 18 17 15 15 14 14 14 14 14 14 14 14 14 14 15 15 16 17 18 19 21 22 24 26 28 29 30 32 33 34 35 36 36 36 36 35 35 35 35 35 35 35 35 36 37 37 38 38 37 36 36 36 35 34 33 32 32 31 31 31 31 32 33 34 34 35 36 37 38 39 40 41 41 41 42 42 43 43 43 44 45 46 47 48 49
19 19 18 16 15 14 13 13 13 13 12 12 12 12 12 13 13 15 16 17 18 20 22 24 26 27 30 31 33 34 36 37 38 39 39 39 38 38 37 36 35 35 34 34 34 34 34 34 35 36 36 36 35 35 36 36 35 34 32 32 31 31 32 32 33 34 35 36 36 38 39 40 40 41 42 42 42 42 43 43 44 46 46 48 49 50 51 52
18 17 15 14 12 12 12 11 11 10 10 10 11 12 13 14 15 17 18 20 21 23 25 27 29 31 33 34 35 37 38 39 40 41 41 41 40 39 37 36 34 34 33 32 31 31 31 32 32 32 33 33 33 34 34 35 34 33 33 33 32 32 33 33 34 35 35 36 37 38 40 40 41 41 42 43 43 44 45 46 46 48 49 50 51 53 54 55
15 13 12 11 10 9 9 8 8 9 10 10 12 14 15 16 18 19 21 23 25 26 28 29 31 32 34 34 35 37 39 40 40 41 41 41 40 39 37 34 32 31 31 30 29 29 29 29 29 30 30 31 31 32 34 34 33 32 33 33 33 33 33 34 34 35 35 36 37 38 40 40 41 42 43 44 45 46 47 48 49 50 51 53 54 55 56 57
10 9 8 7 7 7 7 7 9 10 11 12 14 16 18 19 21 22 24 25 27 28 29 30 30 31 32 33 33 34 35 36 37 38 38 38 38 36 34 32 30 29 29 28 27 27 27 27 27 28 28 29 30 32 33 32 31 32 32 33 33 34 34 34 35 35 36 37 38 38 40 41 41 43 44 46 47 48 49 50 51 53 54 55 56 56 57 57
6 5 5 4 5 6 7 8 10 11 13 15 16 18 20 22 23 24 25 26 26 27 27 28 28 29 28 28 28 28 29 31 32 33 34 34 33 32 31 29 27 26 26 26 25 25 26 26 26 26 26 28 29 31 32 32 31 31 31 32 33 33 34 34 35 36 37 37 38 39 41 43 44 45 46 48 49 50 51 52 53 54 55 56 56 56 56 57
4 3 3 4 6 7 8 10 12 13 15 17 19 20 21 23 23 24 24 24 24 25 25 25 25 25 24 23 22 22 23 24 25 27 28 28 29 28 27 26 25 24 23 23 23 24 24 25 25 25 26 28 29 30 31 32 32 33 33 34 34 34 34 35 36 38 39 40 41 42 43 45 46 47 48 49 50 51 52 53 54 55 55 55 55 55 55 56
2 3 4 6 7 8 10 11 13 15 17 19 20 21 21 21 22 23 23 23 22 22 22 22 21 21 21 20 20 20 20 20 20 22 23 23 24 24 25 25 24 23 22 21 22 22 23 24 24 25 26 28 29 31 32 33 34 35 36 35 36 36 36 37 38 39 40 41 42 44 45 47 48 49 49 50 50 51 52 52 52 52 53 53 54 55 56 57
3 4 5 7 8 10 11 13 15 17 18 19 20 20 20 20 21 22 23 23 22 21 21 20 20 20 19 19 20 20 20 19 19 19 19 19 20 21 23 24 23 22 21 21 22 22 23 24 24 24 25 26 28 29 30 31 32 33 34 34 34 35 36 37 39 40 41 43 44 46 47 48 49 49 49 49 50 50 50 50 50 51 52 53 55 56 57 58
4 5 7 8 9 11 13 14 16 17 18 19 19 20 20 20 20 20 20 21 21 20 19 19 19 19 19 19 20 19 19 18 18 18 17 17 18 21 23 22 21 22 22 22 23 23 23 24 25 25 26 27 28 28 29 30 31 32 33 34 35 36 38 39 40 42 43 44 45 47 47 48 49 48 48 48 48 49 49 50 51 53 54 55 56 56 56 56
5 6 8 9 11 12 14 15 16 17 17 18 19 19 19 18 18 18 18 19 19 19 18 18 19 19 19 20 19 19 18 18 18 18 17 17 18 21 22 21 21 21 21 21 22 22 23 24 25 25 26 27 27 28 29 30 32 33 35 36 37 39 40 41 42 43 44 45 46 47 48 49 48 48 47 48 48 49 51 53 54 55 56 55 54 53 52 51
6 8 9 10 12 13 14 15 16 17 17 18 18 18 18 17 17 17 17 18 18 18 18 18 19 19 19 20 19 18 18 18 18 18 18 19 19 19 19 19 20 20 21 21 22 23 24 24 25 25 26 27 28 29 31 32 33 35 36 37 39 40 41 42 43 43 44 45 46 46 48 49 49 48 48 49 51 52 54 54 54 54 52 51 50 49 48 48
7 8 9 11 12 13 14 15 15 16 16 16 17 17 17 17 17 17 18 18 18 18 18 18 19 18 19 19 18 18 18 18 18 18 18 19 19 19 18 19 19 19 20 22 23 24 25 26 26 27 28 29 31 32 33 34 35 36 37 38 39 41 42 42 43 44 45 45 45 46 48 50 50 50 51 52 53 53 51 50 49 48 48 47 47 47 47 47
8 9 10 11 12 13 14 14 14 15 15 15 15 16 17 17 17 17 18 18 18 18 18 18 18 18 18 18 17 18 17 18 18 18 18 18 18 18 18 19 20 20 21 22 23 25 26 27 28 29 30 31 32 33 34 35 36 37 38 39 40 41 42 42 43 44 45 46 46 47 49 52 53 53 52 51 50 48 46 46 46 47 47 47 47 47 47 48
8 9 10 11 12 12 13 13 14 14 14 15 15 15 16 16 17 17 18 18 17 17 18 18 17 17 17 17 17 18 18 18 18 18 18 18 18 18 19 19 20 20 21 22 24 25 26 27 28 29 31 32 33 34 35 36 37 38 38 39 39 40 41 42 43 44 45 47 48 49 51 53 53 52 50 48 47 46 46 47 47 46 46 46 47 48 48 49
9 9 10 11 11 12 13 13 13 13 13 13 14 14 15 16 16 17 17 17 17 17 17 18 18 17 17 17 18 18 19 19 20 20 20 21 21 21 21 21 21 22 22 23 25 25 26 28 29 30 31 32 33 34 35 35 36 37 37 38 39 40 41 43 44 46 48 49 49 48 49 49 49 48 47 46 46 46 46 46 46 46 46 47 48 49 49 50
9 9 10 10 10 11 11 11 11 12 12 12 13 13 14 15 16 16 17 17 17 17 18 18 18 19 19 19 19 19 20 20 20 21 21 21 22 23 23 23 23 23 24 24 25 26 26 27 28 29 30 31 32 33 34 35 36 37 38 40 41 43 44 45 47 47 47 47 46 45 45 45 46 45 44 44 45 45 45 45 45 46 47 48 49 49 50 50
9 9 10 9 9 9 9 10 10 10 11 12 13 14 15 16 16 16 17 18 18 19 19 19 19 20 20 20 21 21 21 22 22 22 22 22 22 22 23 23 23 24 24 24 25 25 26 27 28 29 30 32 33 34 36 37 39 40 41 42 43 44 45 45 45 44 44 44 43 43 43 43 44 43 43 43 44 44 44 45 46 47 48 48 49 49 49 50
8 9 8 8 7 8 8 8 9 10 11 12 14 15 15 16 16 17 18 18 19 19 20 20 21 21 21 21 22 22 22 22 23 23 23 23 23 23 23 24 24 25 25 26 27 28 29 30 31 33 34 35 36 37 38 39 40 41 41 41 42 42 42 42 42 41 41 41 41 41 41 42 42 42 42 42 43 44 45 46 47 48 48 48 48 49 49 49
8 8 7 6 7 7 7 8 9 11 12 13 14 15 16 16 17 18 18 19 19 20 21 21 21 21 22 22 22 22 23 23 23 23 23 23 24 24 25 26 26 27 28 29 30 31 32 33 34 35 35 36 36 37 37 37 38 38 38 38 39 39 40 40 39 39 39 39 40 40 41 41 41 41 42 42 43 44 46 47 48 48 48 48 49 49 49 49
7 7 6 6 6 6 7 9 10 11 13 14 15 16 17 17 18 18 19 20 20 20 21 22 22 22 22 23 23 23 24 24 24 25 25 26 27 27 28 29 29 30 30 30 30 30 30 30 32 33 33 34 34 34 34 34 35 35 35 36 36 38 39 39 39 39 39 40 41 41 41 42 41 41 41 42 43 46 47 48 48 48 48 48 48 49 49 49
6 6 5 5 6 6 7 9 11 12 13 14 15 17 17 18 19 19 20 21 21 22 22 22 23 23 23 23 24 24 25 26 27 27 28 29 29 29 29 29 29 29 29 29 29 28 27 27 28 29 31 31 31 32 32 32 33 33 33 35 35 37 38 40 41 41 41 42 42 42 42 42 41 40 40 42 45 47 47 47 47 47 47 47 48 49 50 51
6 5 5 5 5 6 8 9 11 13 15 16 16 17 18 19 20 21 21 22 22 23 23 23 24 25 25 25 26 26 27 27 27 27 28 28 27 27 27 27 27 27 27 27 27 27 25 25 27 28 29 30 30 30 31 32 33 34 34 36 37 37 39 40 41 42 43 44 44 43 43 42 42 41 41 43 45 45 45 45 46 46 47 47 49 50 51 53
5 5 5 5 6 7 9 10 12 14 16 17 17 18 19 20 21 22 22 23 23 23 24 24 25 26 26 26 26 26 26 26 26 26 26 26 26 26 26 26 26 26 27 27 27 27 25 24 27 29 30 30 31 32 33 33 34 36 36 37 38 39 40 40 41 42 43 44 45 44 43 43 42 42 43 45 45 44 44 45 45 46 47 48 50 51 53 54
5 5 5 6 7 8 10 12 13 15 17 17 18 20 21 22 22 23 23 23 23 23 24 24 24 24 24 24 24 25 25 25 25 25 25 25 25 25 26 26 27 27 27 28 29 29 28 25 27 31 32 32 33 34 34 35 36 37 38 38 39 40 40 41 42 43 43 44 44 44 43 43 43 43 44 46 45 44 45 45 46 47 48 50 51 52 54 56
5 6 5 6 8 9 11 13 14 16 17 18 20 21 22 22 23 23 23 23 23 23 23 23 23 22 22 23 23 23 24 24 24 24 25 25 26 27 27 28 29 29 29 30 30 32 32 29 27 31 34 34 34 35 35 36 37 38 38 39 40 41 41 42 42 43 44 45 45 45 44 43 43 43 45 46 45 45 46 47 48 49 50 51 52 54 56 57
6 6 6 7 9 10 12 13 15 17 19 20 21 21 22 22 22 22 21 21 21 22 22 22 22 22 22 22 23 23 24 24 25 26 27 27 28 29 29 30 31 31 32 32 33 33 34 33 31 32 35 36 36 36 36 37 37 38 39 40 40 41 42 42 42 42 43 44 45 46 46 44 43 44 46 45 45 46 47 47 48 50 51 52 54 55 57 59
7 7 7 8 9 11 13 15 17 18 20 20 21 20 20 20 20 20 20 20 20 20 21 21 22 22 23 23 24 25 27 27 28 29 29 30 31 31 31 32 33 33 34 34 35 35 35 35 33 33 35 37 37 37 37 37 38 38 39 40 41 41 42 42 41 41 41 42 42 44 44 42 43 45 46 45 46 47 47 48 49 51 52 54 55 57 59 61
7 8 8 9 11 12 14 16 17 19 19 19 19 18 18 18 18 19 19 19 20 21 21 22 23 24 25 26 27 28 30 31 32 32 32 32 33 32 33 34 34 34 35 35 35 36 36 36 35 35 36 37 37 38 38 38 39 40 41 42 42 42 42 42 41 41 41 40 40 41 42 41 42 44 44 45 45 46 47 48 50 51 53 55 57 59 61 63
9 9 10 11 13 14 16 17 17 17 17 16 17 17 17 18 18 19 20 20 21 22 23 24 25 27 28 29 30 30 31 32 33 33 33 34 34 34 35 35 35 36 36 36 36 36 37 37 37 37 38 39 39 39 40 40 40 41 42 43 44 44 43 43 42 42 41 40 38 40 41 41 41 42 43 44 45 46 47 49 50 53 55 57 59 61 63 65
10 11 12 13 14 15 16 16 15 15 15 16 17 17 18 18 19 20 21 22 23 24 26 27 28 29 30 31 31 32 32 32 33 34 34 34 35 35 35 36 36 36 36 36 36 37 38 38 38 38 39 40 40 40 40 40 41 42 43 43 43 42 42 41 41 40 40 38 38 39 40 40 41 41 42 43 44 46 48 50 52 54 56 58 60 62 64 66
12 13 13 14 14 14 14 14 14 15 16 17 17 18 19 20 21 22 23 25 26 27 28 29 30 31 32 32 33 33 34 34 34 35 35 35 36 36 36 37 37 37 37 37 37 38 39 40 40 41 41 42 41 41 42 41 41 42 42 42 42 41 40 40 39 38 38 37 37 38 38 39 40 41 42 44 45 47 50 52 54 56 58 60 62 64 66 68
13 13 13 13 13 13 13 14 16 16 17 17 18 19 21 22 23 24 25 27 28 29 30 31 32 32 33 33 33 34 34 35 35 35 36 37 37 37 37 37 37 37 38 38 38 39 40 41 42 42 44 45 45 45 46 44 43 43 43 42 42 40 39 39 38 38 38 36 36 37 37 38 40 42 44 45 48 50 52 54 56 58 60 62 63 65 68 70
12 12 12 12 13 14 15 16 17 17 18 19 20 21 22 23 25 26 27 28 29 30 31 31 32 32 32 33 33 33 34 35 36 36 37 37 38 37 38 38 38 39 39 40 41 41 42 42 42 42 44 46 45 45 45 45 44 43 42 42 41 39 38 38 37 37 36 35 34 36 38 38 41 44 46 48 50 52 54 55 57 58 60 62 65 67 70 72
11 12 12 14 15 16 17 17 18 19 19 21 21 23 24 25 26 27 28 29 30 31 31 32 32 32 32 32 33 33 34 35 36 36 37 37 37 38 39 40 40 40 41 42 43 44 44 43 42 42 44 45 44 43 43 43 42 41 40 40 39 38 37 36 35 34 34 35 35 37 39 41 43 45 48 50 52 53 55 56 57 59 62 64 67 69 72 73
12 14 15 16 17 17 18 18 19 20 21 22 23 24 26 27 28 29 29 30 30 31 31 32 32 32 32 33 33 34 34 35 35 36 37 37 38 39 40 41 41 41 43 44 45 45 45 44 44 43 43 44 43 42 42 41 39 39 38 38 36 35 34 33 32 33 34 36 37 38 41 43 45 47 50 52 53 54 55 57 59 61 64 66 68 71 72 74
15 16 17 17 18 18 19 19 21 21 22 23 25 26 27 28 28 29 29 30 31 31 32 32 32 33 33 34 34 36 36 36 37 37 37 38 39 40 41 42 43 43 44 46 46 46 46 46 46 44 43 43 42 41 40 38 37 37 37 35 33 32 31 31 32 33 35 37 39 41 43 45 47 49 51 52 53 54 56 57 60 62 65 67 69 71 73 74
17 17 17 18 18 19 20 21 22 23 24 25 26 27 27 28 28 29 30 31 31 32 32 32 33 34 34 35 36 37 38 38 39 39 39 40 41 42 43 44 45 45 46 47 47 47 47 47 47 45 43 43 41 40 39 37 36 36 34 32 31 30 30 31 33 34 36 38 41 43 45 47 49 50 51 52 53 55 57 59 61 64 66 69 71 73 75 75
17 17 18 18 19 20 21 22 23 25 26 26 27 27 27 28 29 29 30 31 32 32 32 33 34 34 35 36 37 38 38 39 40 41 41 42 43 44 44 45 46 47 47 48 48 48 48 48 47 46 44 43 41 39 37 36 35 34 31 30 29 30 31 33 35 37 39 41 43 45 47 48 50 51 52 53 54 56 58 61 63 66 69 72 74 76 76 77
17 18 18 19 20 21 23 24 25 26 27 27 27 28 28 29 30 31 32 32 33 33 33 34 34 35 36 36 38 39 39 40 41 42 43 43 44 45 45 46 47 48 48 49 49 49 48 47 47 46 44 42 40 38 36 35 33 30 29 29 29 30 32 35 37 40 42 44 46 47 49 50 52 53 53 54 55 58 61 63 66 69 71 74 76 76 77 77
Wind_Direction
182 180 183 182 170 164 159 190 301 309 304 289 259 238 234 236 238 238 237 236 236 235 231 229 229 232 238 241 245 249 252 252 255 256 256 256 255 255 255 255 256 257 258 258 259 259 260 261 261 261 261 261 262 263 263 263 264 265 265 266 268 268 268 270 272 274 275 274 274 275 275 274 274 275 276 277 277 277 276 275 274 276 278 277 276 275 276 275
194 192 192 205 223 238 247 263 281 290 294 290 273 255 245 243 244 243 242 243 243 243 243 244 244 244 246 246 247 249 250 252 254 255 256 257 258 258 258 258 258 259 259 260 261 262 262 262 262 262 262 262 263 264 265 265 265 266 268 270 272 271 272 274 275 276 276 276 276 275 276 276 276 277 278 278 278 277 276 275 278 281 280 277 276 277 276 276
203 204 204 210 229 250 264 273 279 286 290 288 279 268 258 252 251 249 247 247 246 246 246 247 248 249 250 251 252 253 253 254 255 256 257 258 259 260 261 261 261 261 261 262 263 264 265 265 266 266 266 266 266 266 267 268 268 269 271 272 274 274 275 276 276 277 277 277 277 276 276 276 277 278 278 278 278 276 275 278 283 282 278 276 277 278 277 278
212 214 214 219 231 246 260 270 276 281 285 285 280 273 267 261 256 254 252 251 251 251 251 251 251 252 253 254 256 257 258 258 259 260 260 260 261 261 262 263 263 263 263 264 264 265 265 266 267 268 269 269 268 268 269 269 269 271 272 273 273 275 276 277 277 277 277 277 277 277 277 277 277 278 278 278 276 276 278 282 282 279 278 278 279 279 279 280
218 220 224 232 241 251 260 268 274 279 282 282 279 274 270 265 260 256 254 254 255 255 256 256 257 257 257 258 259 261 262 261 262 264 264 265 264 264 264 264 265 265 265 264 264 265 265 266 267 268 268 269 269 269 269 269 269 271 272 273 273 274 276 277 278 278 278 278 278 278 278 278 278 279 279 277 276 278 281 281 280 279 280 281 281 281 282 283
225 230 236 243 249 256 262 268 274 278 281 280 278 275 271 266 262 258 255 255 257 259 262 264 266 267 268 268 268 268 267 266 267 268 268 268 267 267 266 266 266 266 267 266 266 266 266 266 267 268 268 269 269 269 269 270 270 271 272 273 274 275 276 277 278 279 279 279 280 279 279 278 279 279 278 277 278 279 280 281 281 282 282 282 283 283 284 284
235 241 247 252 256 261 265 270 274 277 279 279 277 274 272 269 266 263 260 260 261 264 267 270 272 274 276 276 275 275 273 271 271 271 269 269 269 268 268 268 267 266 267 268 268 268 268 268 269 269 270 270 270 270 270 270 271 271 272 273 274 275 276 277 278 280 281 281 281 280 280 279 279 279 279 279 280 280 281 282 283 283 283 284 284 284 284 284
243 248 253 258 262 266 270 273 275 276 278 277 275 274 272 270 268 266 265 264 266 268 270 273 274 276 278 277 277 278 277 276 276 275 273 272 272 271 270 269 269 268 267 267 267 268 268 269 270 270 271 272 272 273 273 272 272 272 272 272 273 274 275 277 278 280 281 281 281 281 280 280 280 280 280 280 281 282 283 283 283 284 284 284 284 284 284 284
247 252 257 261 265 268 271 274 276 277 277 275 274 272 271 270 268 266 267 268 270 272 274 276 278 279 280 280 280 280 280 281 281 280 280 278 277 277 275 272 271 270 268 267 267 267 268 268 269 269 270 271 273 274 275 274 274 273 273 272 273 273 275 276 278 280 281 282 282 282 281 282 281 281 281 282 283 284 284 284 285 285 284 284 284 285 285 285
252 256 260 263 267 270 273 276 278 277 276 275 274 273 272 270 269 269 271 273 274 276 278 280 282 284 285 286 286 284 285 286 285 285 285 284 282 281 280 278 276 273 270 268 267 267 267 267 268 269 270 271 273 274 275 276 276 274 273 273 273 273 274 276 278 280 281 281 282 282 282 283 282 282 282 283 284 284 285 285 284 284 284 285 286 286 286 285
255 258 261 264 268 272 275 277 278 278 278 279 278 277 275 274 274 276 277 278 278 279 281 284 286 287 288 290 289 288 289 289 287 287 286 284 283 281 280 280 278 276 274 271 269 267 267 266 267 268 269 270 272 274 275 277 277 276 274 273 273 273 274 275 277 279 279 280 282 282 283 283 283 283 283 283 284 284 285 284 284 285 286 286 287 287 286 286
257 259 261 264 267 271 273 275 277 279 280 280 279 279 278 278 280 281 281 282 283 285 288 289 289 289 289 289 289 290 289 287 286 285 284 282 281 279 278 277 275 274 274 272 270 268 267 267 267 268 268 269 270 272 274 276 277 277 275 273 273 273 274 276 277 277 278 280 281 282 282 283 283 283 283 284 284 285 285 285 286 287 288 288 288 288 287 287
259 260 262 265 267 270 274 277 280 281 282 282 282 282 282 284 285 285 285 287 289 290 290 289 288 288 289 289 290 290 289 287 286 284 282 281 280 279 277 275 273 272 271 270 269 268 268 267 267 268 269 269 270 271 272 273 275 276 275 274 274 275 275 276 276 277 278 279 281 281 281 282 282 283 284 285 285 285 286 287 288 288 288 288 288 288 288 288
259 260 262 264 269 274 278 281 283 284 285 287 289 290 291 293 292 292 292 292 291 291 290 290 290 291 291 291 291 290 289 288 286 284 283 282 280 278 276 274 272 271 269 268 268 268 268 268 268 269 270 271 271 271 271 271 272 273 274 274 274 275 276 276 277 278 279 280 281 282 281 282 283 284 285 285 286 286 287 288 288 288 288 289 289 289 289 289
260 260 262 266 272 279 282 285 287 289 293 297 299 298 298 297 295 295 294 293 292 291 292 292 292 292 292 291 291 290 289 288 286 285 284 282 280 278 276 274 271 269 267 267 267 268 269 269 270 270 271 271 271 271 271 270 271 273 275 274 274 274 276 277 278 279 280 281 282 282 282 283 284 285 285 286 287 288 288 288 288 289 289 289 290 290 290 290
262 261 263 270 277 281 284 288 293 298 301 304 302 300 299 298 296 295 294 293 292 292 292 292 292 293 292 292 291 290 289 288 286 285 283 281 280 279 277 274 271 269 267 267 268 269 270 270 271 271 270 270 271 271 270 270 272 274 274 274 274 274 275 276 278 279 281 281 282 283 284 284 285 286 287 288 289 289 289 289 289 289 290 290 290 290 290 290
259 261 266 272 277 283 290 296 301 303 305 304 302 300 299 297 296 294 293 293 293 294 295 296 297 296 296 295 294 292 290 289 287 284 283 281 280 279 277 275 272 270 269 269 270 271 272 272 272 271 271 270 269 269 270 271 273 274 274 274 274 274 275 277 278 279 280 281 282 283 284 285 286 287 288 289 289 290 290 290 290 290 290 289 289 289 289 289
246 252 261 272 280 289 297 302 304 304 303 301 299 298 296 296 295 294 295 297 298 300 301 302 303 302 301 302 300 297 296 293 290 287 284 282 279 278 276 274 272 271 271 272 272 273 273 274 274 273 272 270 269 270 271 272 272 272 272 272 273 274 276 278 279 279 280 282 283 284 284 285 286 287 288 288 289 289 290 290 290 290 290 290 290 290 290 290
220 237 262 278 287 295 300 302 302 301 299 297 297 296 296 296 297 298 300 304 305 307 308 309 309 310 311 312 312 312 310 306 300 294 289 284 280 277 276 275 273 272 273 274 275 275 276 277 277 276 275 273 273 273 273 274 274 274 274 274 274 274 276 279 280 280 282 283 284 285 285 286 287 287 288 288 289 289 289 289 289 290 290 290 290 290 291 291
223 255 275 283 291 296 298 300 299 298 297 297 297 298 299 302 304 306 308 309 311 312 314 315 317 319 322 326 329 331 329 325 317 307 300 292 285 280 278 276 274 274 275 277 278 279 280 281 282 281 280 279 278 277 276 277 278 279 279 278 278 277 278 280 281 282 283 284 285 286 286 286 287 287 288 289 289 289 289 289 290 290 290 290 291 291 291 291
253 270 281 287 293 297 299 300 299 299 300 300 301 303 307 309 311 313 314 314 316 317 319 321 324 328 333 337 342 345 343 341 336 326 315 303 292 285 280 277 276 276 277 278 279 281 282 283 284 285 285 285 284 283 283 282 282 283 283 283 283 283 283 283 284 285 285 285 286 286 286 287 287 288 289 289 289 290 290 290 290 290 291 291 292 292 291 291
270 279 288 294 299 301 302 302 301 303 305 306 309 312 315 316 317 318 316 316 318 319 322 327 331 335 339 344 348 350 349 347 344 338 326 312 298 287 281 278 277 276 277 279 280 282 284 285 286 286 286 286 286 286 286 286 286 286 286 286 286 286 286 286 286 286 286 286 286 286 287 287 288 289 290 290 291 291 291 291 291 292 292 292 292 291 291 290
284 291 299 302 304 304 304 305 308 312 314 316 319 321 322 322 322 321 319 319 321 323 327 333 337 340 344 348 349 350 350 346 341 335 325 314 303 294 286 281 279 279 281 283 285 286 287 287 287 287 287 287 287 287 287 287 287 287 287 287 287 287 287 287 287 287 287 288 288 288 288 288 290 291 291 292 292 292 292 292 293 293 293 292 292 291 291 291
297 301 305 305 306 307 309 314 319 322 325 326 326 327 328 327 327 327 326 328 330 332 335 339 343 344 345 347 346 347 345 340 336 330 321 314 307 303 297 289 286 284 285 287 287 287 287 288 288 289 289 289 289 289 289 288 288 288 288 288 288 288 288 288 288 289 289 289 290 290 290 290 291 292 292 293 293 293 293 293 293 293 293 292 293 293 293 292
302 303 305 307 311 314 319 325 329 330 331 331 331 332 332 332 334 335 337 339 340 341 342 343 345 345 344 343 344 343 340 337 335 330 323 318 311 308 304 299 294 290 288 288 287 287 288 289 289 290 290 290 290 290 290 290 290 290 290 290 290 290 290 290 290 290 290 290 291 292 292 291 291 293 294 295 295 295 295 295 294 294 294 294 295 294 293 292
302 306 310 314 318 323 328 333 335 335 335 335 337 337 337 339 342 344 346 348 347 346 346 346 346 346 344 343 345 344 341 340 339 334 330 326 319 313 308 304 300 296 293 291 290 290 291 291 291 291 291 291 291 291 291 291 291 291 290 290 290 290 291 291 291 291 291 291 292 293 294 293 293 295 297 297 297 297 297 297 296 296 296 296 295 294 293 292
309 314 319 322 326 331 335 337 338 338 338 340 341 342 344 347 350 351 351 351 350 348 348 348 348 348 346 344 344 342 339 338 336 334 331 327 323 319 314 311 306 302 300 297 295 294 294 294 293 293 292 292 292 292 292 291 291 291 291 291 291 291 291 291 292 292 292 293 294 295 295 295 296 297 298 298 299 299 299 298 298 298 297 296 295 294 293 293
318 323 327 330 333 336 338 340 340 340 340 343 345 347 351 353 354 353 352 352 351 351 349 347 346 346 345 342 340 336 334 332 330 329 326 322 319 317 314 311 308 305 303 300 298 297 296 295 294 294 293 293 293 292 292 292 292 292 292 292 292 293 293 293 293 294 294 295 296 297 297 297 298 298 299 299 300 299 299 299 299 298 297 296 295 295 295 295
325 330 333 335 338 339 340 341 341 341 343 346 349 351 354 355 354 352 351 350 350 349 348 345 343 342 341 338 335 332 329 328 326 325 322 320 317 315 313 311 308 306 304 302 300 299 298 297 296 296 295 295 294 294 294 294 294 295 295 295 295 295 295 295 296 296 297 297 298 298 298 298 299 299 300 300 299 299 300 300 298 297 296 296 297 297 297 297
331 334 336 339 342 340 341 342 342 344 347 349 352 354 355 353 351 350 350 350 347 346 345 343 341 340 337 334 332 330 328 326 324 323 320 318 316 314 313 312 310 309 307 306 304 303 302 301 300 299 299 298 298 297 297 297 297 297 297 297 297 297 297 297 298 298 299 299 299 299 299 299 300 300 301 301 300 300 300 299 298 297 298 298 299 299 299 299
334 335 337 341 343 342 345 348 348 350 352 353 354 354 353 350 348 348 348 347 345 343 342 340 338 336 334 331 329 328 327 325 324 323 322 320 319 317 315 314 313 312 312 310 309 308 306 305 304 302 301 301 300 300 299 299 299 299 299 299 299 299 299 299 299 300 300 300 300 300 300 301 302 303 303 302 302 302 300 299 299 300 301 301 302 301 301 300
335 337 341 343 346 348 353 355 355 355 355 355 355 352 350 348 347 346 346 344 342 340 338 336 334 332 331 329 328 327 326 325 324 323 322 320 319 317 315 313 312 310 309 308 307 307 306 306 305 304 303 302 302 302 302 302 302 302 302 302 302 302 301 301 301 301 301 302 302 303 304 304 305 306 305 304 304 302 301 300 301 302 303 303 302 302 301 301
339 344 347 347 348 352 357 359 360 359 357 355 353 350 348 346 345 343 342 340 339 337 334 332 331 331 330 330 329 328 326 325 323 321 319 317 316 314 313 311 311 310 309 309 308 308 308 307 306 306 305 305 305 305 305 305 305 305 306 305 305 305 304 304 304 304 305 305 305 306 307 307 307 307 306 305 303 301 301 302 303 303 303 303 302 302 302 302
347 353 353 348 348 352 357 360 1 359 356 353 350 348 346 344 342 341 340 339 337 336 335 333 332 331 330 329 327 326 324 322 321 319 318 318 317 317 317 316 316 316 316 316 315 315 315 313 311 310 309 309 309 309 309 309 308 309 308 308 307 307 307 307 307 307 307 306 307 307 307 307 307 306 305 303 301 301 302 303 303 303 303 303 303 302 303 303
354 357 355 348 346 349 352 355 356 355 352 350 347 346 344 342 341 340 340 339 338 337 336 334 332 330 329 328 327 326 325 324 323 323 323 324 324 324 323 323 323 323 322 321 321 322 323 320 317 315 313 313 314 314 313 312 311 311 311 309 309 308 308 307 307 307 307 306 307 307 307 307 306 306 305 303 302 302 303 304 303 303 303 303 303 304 304 304
3 0 356 348 341 342 347 348 349 349 349 347 345 344 342 341 340 340 340 339 338 337 335 333 332 331 331 332 332 331 331 331 331 331 332 332 331 331 331 331 330 330 328 328 327 327 328 326 321 318 317 317 316 315 314 313 312 312 311 310 309 308 308 307 307 307 306 306 307 307 308 307 307 306 305 303 303 304 305 305 304 305 305 305 306 306 306 305
8 1 357 349 341 340 342 342 344 346 346 344 343 343 341 340 340 340 339 338 337 337 337 337 337 337 337 338 337 337 338 339 339 339 339 338 337 337 336 335 334 333 332 330 329 327 327 327 322 318 316 316 315 314 313 313 312 311 311 309 309 308 308 308 308 307 307 307 307 308 308 307 307 307 305 304 306 308 308 307 308 308 308 309 308 308 308 307
5 359 356 350 342 338 339 341 343 344 343 343 343 342 340 339 340 340 340 341 342 343 344 344 344 345 345 345 345 345 346 345 345 344 342 341 339 338 336 335 333 332 330 328 327 324 323 324 321 316 315 315 315 314 314 313 313 312 311 310 310 310 309 309 309 309 309 309 308 308 309 309 309 308 307 308 310 310 310 310 311 311 311 311 310 310 309 309
3 357 353 348 344 342 342 343 343 342 342 343 342 340 340 341 343 344 346 348 349 351 352 352 353 353 353 352 350 349 348 346 344 342 340 338 337 335 333 332 331 329 328 327 325 323 322 322 322 318 316 316 316 316 316 315 314 313 311 311 311 310 310 310 311 311 311 311 310 310 310 311 311 310 310 312 313 312 312 313 313 313 313 312 312 311 311 310
7 1 356 352 350 349 346 344 343 343 343 342 341 343 346 348 351 354 356 358 360 0 0 360 358 356 354 351 349 347 345 343 341 339 337 335 333 332 331 330 329 328 328 327 326 325 323 323 323 321 318 318 317 317 317 316 315 314 313 312 311 311 311 311 312 312 312 312 311 310 311 312 312 311 312 314 314 314 315 315 315 315 314 314 313 313 313 313
18 11 5 359 354 350 346 344 343 343 344 345 348 353 357 0 4 7 8 8 7 5 2 359 356 353 350 347 345 343 342 340 338 337 336 334 333 332 331 331 330 329 329 328 327 326 325 325 325 323 320 318 318 318 318 317 316 315 314 313 312 312 313 313 314 314 313 313 313 311 312 313 312 313 314 315 316 316 317 316 316 316 316 316 316 315 315 314
20 11 4 359 354 349 347 346 346 348 351 357 3 8 12 15 15 14 12 8 5 1 357 354 351 348 346 344 343 341 340 339 337 336 335 335 334 334 333 332 331 331 331 330 329 327 326 325 325 324 321 320 320 320 319 318 317 315 314 314 314 315 315 315 315 315 315 315 315 313 314 315 314 315 316 317 318 318 318 318 318 318 318 317 317 316 315 315
13 5 360 355 353 350 350 352 356 3 11 17 21 22 22 19 15 11 7 3 359 356 353 350 347 345 343 342 341 340 339 338 337 336 336 336 335 335 334 333 333 332 332 331 330 328 326 325 325 324 322 320 320 320 319 317 316 315 315 315 316 316 316 316 316 316 316 316 315 315 316 317 317 318 319 319 320 320 320 320 320 319 319 318 317 317 316 316
5 2 358 355 356 357 2 10 19 26 30 31 28 24 19 14 10 6 2 358 355 351 349 347 345 344 342 341 341 340 339 339 339 338 337 337 337 336 335 334 333 333 332 331 330 328 326 325 325 323 321 320 319 319 318 318 318 318 317 317 317 318 318 318 318 317 317 317 317 316 318 320 320 320 321 322 322 322 322 322 321 320 320 319 318 318 317 317
1 1 1 4 10 19 27 34 38 37 33 29 23 18 14 10 5 1 357 354 352 349 348 347 345 344 343 342 342 342 341 341 340 340 338 337 337 336 335 334 334 333 332 331 330 328 327 325 324 323 321 320 320 320 319 320 320 320 319 320 320 320 320 319 319 318 317 318 319 319 321 323 322 323 324 324 324 324 323 323 322 321 321 320 319 319 318 318
6 11 20 29 37 44 46 43 39 34 27 22 18 14 10 6 1 358 355 353 351 349 347 347 345 345 345 344 344 344 343 342 340 340 338 337 337 336 335 334 333 332 331 330 329 328 326 325 324 322 321 321 321 321 320 320 320 320 320 321 321 321 320 319 318 318 318 319 321 322 323 324 324 325 326 325 325 324 324 323 322 321 321 320 320 320 319 319
26 36 46 53 54 51 46 39 32 27 22 17 13 9 5 2 359 357 354 352 350 349 348 347 347 346 345 345 344 343 343 341 340 339 338 337 336 336 335 333 332 331 330 329 328 327 326 325 324 323 321 321 321 321 321 321 321 321 321 321 321 321 320 319 318 319 320 322 324 324 325 325 325 325 326 325 325 324 323 323 322 321 321 321 321 321 321 321
54 59 60 57 53 46 39 33 27 22 16 12 8 5 2 0 358 356 354 352 351 350 349 348 347 346 345 344 343 342 342 341 340 339 338 337 336 335 334 332 331 330 329 328 327 326 325 324 324 323 322 322 322 322 322 323 322 322 322 322 322 321 321 320 320 322 324 325 325 326 326 327 327 327 327 326 325 324 323 323 323 323 323 323 323 323 323 323
68 65 59 52 46 39 33 28 23 17 13 10 6 3 2 0 358 356 355 353 352 351 350 349 348 346 345 344 343 342 342 341 341 339 338 337 336 334 333 332 331 330 328 328 327 326 325 323 323 323 323 323 324 324 324 325 324 324 324 324 323 323 322 322 323 324 325 326 327 328 328 328 329 328 327 326 324 324 324 324 325 325 325 325 325 325 325 324
66 59 52 46 41 34 28 23 18 15 12 10 7 4 2 0 359 358 357 355 354 352 351 349 349 348 346 345 344 343 342 341 340 339 338 337 335 334 333 332 331 329 328 327 326 324 323 322 322 323 323 324 325 326 326 326 326 325 325 325 325 324 324 324 325 326 326 327 328 328 329 329 329 328 326 325 325 325 325 326 326 326 326 326 326 326 326 326
59 53 46 40 34 29 24 19 16 13 12 10 8 5 3 2 1 359 358 357 355 354 352 351 350 349 347 346 344 344 343 341 340 339 338 337 336 335 333 332 330 329 328 326 325 323 323 322 322 322 323 325 326 327 327 327 327 327 326 326 326 326 327 326 327 327 327 328 328 329 329 329 328 327 326 326 326 326 327 327 328 328 328 328 328 328 328 327
55 48 41 34 29 25 21 18 15 14 12 10 8 6 4 3 2 0 359 358 357 355 354 353 351 349 348 346 345 344 342 341 340 339 338 337 336 334 333 331 330 328 327 325 324 323 322 322 322 322 324 325 327 328 328 328 327 326 326 328 328 328 329 329 329 330 329 330 330 330 329 329 328 328 327 327 327 327 328 328 329 329 329 330 329 329 328 327